ONEWEB-0391 (50471 NORAD) Tracking and Keplerian Element Data
This shows tracking and keplerian element data for the satellite.
Feedback or suggestion? Click here.
Element | Value |
Catalog | 50471 |
Name | ONEWEB-0391 |
Epoch Orbit | 130 |
Epoch Day | 140.58334491 |
Epoch Year | 2022 |
RAAN | 305.317 |
Inclination | 87.3134 |
Eccentricity | 0.0004026 |
Argument of Perigee | 122.8882 |
Mean Anonmoly | 196.2759 |
Mean Motion | 14.62691641 |
Decay Rate | -0.01174349 |
L1 | 1 50471U 21132C 22140.58334491 -.01174349 00000+0 -24697+0 0 9999 |
L2 | 2 50471 87.3134 305.3170 0004026 122.8882 196.2759 14.62691641 1300 |
Live tracking and technical data element details for ONEWEB-0391 (NORAD 50471). ONEWEB-0391 can be tracked NOW for your location showing map with azimuth and elevation plus other details from your city location.
Track the satellite on the map from your city or location and see movement details for azimuth, elevation, latitude, longitude, range, height, and movement on the map or in text.
IsCatalogInMostPopularTable: catalog: 50471, numindb: 20
Update: records affected: 1
GetName: 50471 ONEWEB-0391
Hit Count: updated at: Mon, 23 May 2022 21:22:41 GMT